Wind_Speed
55 56 56 56 56 57 57 57 57 57 56 54 54 53 53 53 52 52 51 50 50 50 49 49 49 49 49 48 48 48 47 47 47 47 47 47 46 46
55 56 56 56 56 56 56 56 57 56 55 52 52 51 52 52 51 51 51 50 50 49 49 49 50 50 48 48 48 48 48 48 48 48 48 47 47 47
55 55 54 54 55 55 56 56 55 55 54 52 52 51 51 51 52 52 51 51 50 49 49 49 49 49 48 48 47 48 49 49 48 48 48 47 47 48
53 54 55 54 53 54 55 55 54 53 53 52 51 51 51 51 52 52 52 51 50 50 49 49 49 49 48 47 47 48 48 49 49 48 47 48 48 47
53 53 54 54 53 52 53 53 53 52 52 52 51 51 50 50 51 51 51 51 50 49 49 49 49 49 48 48 48 48 49 49 48 47 47 47 47 47
53 53 51 51 51 52 51 50 51 51 52 52 51 50 49 49 50 50 51 50 49 49 48 48 47 47 47 47 48 49 49 48 47 46 46 47 47 47
52 52 51 50 50 50 50 50 51 51 52 52 51 50 49 49 49 49 50 49 49 48 47 47 47 47 47 47 48 48 47 45 45 45 45 46 47 47
51 51 50 49 48 49 49 49 50 51 51 51 50 50 49 49 48 47 48 48 47 46 46 45 45 46 46 46 46 46 45 44 44 44 45 46 46 46
49 50 49 48 49 48 48 48 48 49 48 48 48 49 48 47 47 46 46 47 46 46 46 45 45 45 45 45 45 45 45 44 44 44 45 45 45 44
47 47 47 47 47 48 48 48 48 47 46 46 46 46 46 46 46 46 45 45 45 45 44 44 44 45 45 45 45 45 45 44 43 43 43 43 43 43
45 45 45 46 46 47 48 48 48 46 45 45 45 44 44 44 44 43 43 44 43 43 43 44 44 44 44 44 44 44 44 43 43 42 43 43 43 43
44 44 44 44 44 45 45 45 45 44 43 42 43 43 43 42 42 42 42 42 42 43 42 43 43 44 44 43 42 42 43 43 42 42 42 43 43 42
41 41 42 43 42 42 42 42 41 40 40 40 41 42 42 41 40 39 39 40 40 40 41 41 41 42 42 42 42 41 41 42 41 41 41 42 42 41
39 39 40 40 40 40 39 38 38 39 39 39 38 39 40 39 38 38 38 38 39 39 39 39 39 40 40 41 41 41 41 41 40 40 40 40 40 40
36 36 36 36 36 36 36 36 36 37 38 37 36 36 37 38 38 38 37 37 37 37 38 38 39 39 40 40 40 40 40 39 40 40 40 40 40 40
34 33 33 34 34 33 33 33 34 35 36 36 36 35 35 35 36 36 36 36 36 36 37 38 38 39 39 38 38 39 39 39 39 40 40 40 39 39
31 31 30 30 31 31 32 32 32 32 33 34 34 34 33 33 34 35 35 35 35 35 36 37 37 37 37 37 37 37 37 37 37 37 37 37 37 37
29 29 29 30 31 31 31 31 31 31 32 32 32 32 32 32 32 32 34 34 34 34 35 35 36 36 35 35 36 35 35 35 35 35 34 35 35 35
28 28 28 29 29 29 30 31 31 31 31 30 29 29 30 31 31 31 31 32 32 32 32 33 34 33 33 33 33 34 34 34 33 32 32 33 32 32
26 26 26 26 26 27 28 28 29 29 29 27 27 27 28 28 29 30 30 31 31 31 31 32 32 32 32 31 31 32 32 31 31 30 30 31 30 30
23 23 23 23 24 24 24 25 25 26 25 24 24 25 26 27 28 29 29 29 29 30 30 30 30 30 30 30 30 29 29 29 29 29 29 29 29 28
21 21 21 21 22 22 23 23 23 23 23 24 24 25 25 26 27 27 27 27 28 28 29 29 29 29 28 28 28 28 27 26 27 28 28 28 27 26
20 20 21 21 21 21 21 22 22 22 23 23 23 24 24 25 25 26 25 25 26 27 27 26 26 26 26 26 26 25 25 25 26 25 25 24 24 22
Wind_Direction
266 267 268 269 269 268 268 269 269 269 269 269 269 268 268 267 267 267 268 268 269 269 269 270 270 271 271 272 272 272 273 274 275 277 278 279 280 281
267 268 268 269 269 268 268 269 270 269 269 269 269 268 267 266 267 267 268 268 268 269 270 271 270 271 272 272 272 272 273 274 275 275 276 277 279 281
268 268 269 270 269 268 268 268 269 269 269 268 268 268 267 266 266 267 267 268 268 269 269 271 271 271 271 271 272 273 273 274 274 275 276 276 278 281
267 268 269 269 269 268 267 267 269 269 269 268 267 267 267 267 267 267 266 267 268 269 269 270 271 270 270 271 271 272 274 274 274 275 276 277 278 281
268 269 269 269 268 268 267 267 267 267 268 269 267 267 268 268 268 267 266 266 268 269 269 269 269 270 271 270 270 271 274 275 276 276 277 278 278 279
268 268 269 269 268 268 266 266 266 266 267 267 268 267 267 268 268 267 266 266 267 267 268 269 270 270 271 271 272 272 274 275 277 278 278 278 278 279
268 268 268 268 269 267 265 265 265 265 265 265 267 267 267 267 268 268 266 266 267 268 269 269 269 270 272 273 273 274 274 275 276 277 278 279 279 279
268 268 267 267 267 266 265 264 264 265 265 265 265 266 266 267 268 268 266 265 266 268 269 270 271 271 272 274 274 274 274 275 276 277 278 278 278 279
268 268 267 268 267 266 265 263 264 265 265 265 265 266 267 266 266 267 266 265 266 268 270 270 270 271 272 273 274 274 274 274 275 276 277 278 278 279
269 269 268 267 267 266 265 264 264 263 263 264 264 265 267 266 266 267 267 266 267 269 271 271 271 272 272 273 274 275 275 275 275 275 276 277 277 279
269 269 268 267 266 266 266 265 264 264 263 263 264 264 265 265 266 266 266 266 267 268 271 272 272 272 272 273 274 274 274 274 274 276 277 278 277 278
269 268 267 266 265 265 266 265 264 264 264 263 263 263 264 264 265 265 266 267 267 269 271 272 272 273 274 274 274 274 274 275 275 277 279 279 278 279
268 268 267 265 264 264 264 263 262 262 262 262 262 262 262 262 263 265 266 267 268 270 271 271 273 273 274 275 274 274 275 275 276 277 279 279 278 280
268 268 265 264 264 264 264 263 261 261 260 262 262 262 261 262 263 264 265 265 267 268 269 271 273 274 274 275 276 276 275 275 276 277 278 277 278 281
268 266 264 263 263 262 261 261 261 261 261 262 261 261 260 260 261 262 264 264 266 267 268 270 273 274 274 275 276 275 275 275 276 278 278 277 279 281
267 265 264 262 261 260 259 260 260 260 260 259 259 260 261 261 260 261 262 265 267 268 269 271 272 273 275 275 276 276 276 277 277 278 277 278 279 280
265 263 262 261 259 259 258 258 260 260 258 258 259 260 260 260 260 262 264 267 268 268 270 272 272 274 276 276 277 278 279 279 280 279 278 278 279 281
265 262 262 261 260 259 258 258 259 259 260 259 259 258 257 258 260 264 267 268 269 270 271 272 274 276 276 276 278 279 279 281 281 280 279 279 281 283
266 265 263 261 260 259 259 259 260 260 259 258 259 258 257 258 261 266 267 268 269 270 272 274 274 276 276 276 277 279 280 280 280 280 281 282 283 284
266 266 264 263 262 261 260 260 259 260 259 259 259 260 260 261 263 265 267 268 270 271 272 274 275 276 276 276 277 279 279 279 278 280 282 283 284 284
266 265 263 262 261 261 261 260 260 260 259 259 260 262 264 266 266 267 268 269 270 272 274 275 276 277 276 276 277 278 278 277 278 281 283 284 284 283
265 265 263 261 261 261 261 261 261 259 259 260 262 265 266 267 267 268 269 270 272 274 276 277 276 275 275 275 276 277 277 278 280 283 284 285 284 283
265 265 264 261 260 261 260 260 260 259 260 262 264 266 267 269 270 270 269 270 272 274 276 275 274 274 274 273 274 275 277 279 282 284 284 285 284 282
Height
5629 5629 5628 5628 5628 5628 5627 5627 5627 5628 5630 5631 5630 5630 5628 5628 5629 5628 5629 5630 5631 5631 5631 5632 5632 5632 5632 5632 5632 5632 5631 5631 5631 5630 5629 5627 5626 5624
5614 5614 5614 5613 5613 5613 5613 5612 5612 5612 5614 5617 5616 5615 5614 5614 5614 5614 5615 5616 5617 5617 5618 5618 5618 5618 5618 5619 5619 5618 5618 5617 5617 5616 5615 5614 5613 5611
5599 5600 5599 5598 5598 5598 5598 5598 5597 5597 5598 5602 5601 5601 5600 5601 5601 5601 5601 5602 5603 5604 5604 5605 5605 5605 5605 5605 5605 5604 5604 5603 5603 5602 5601 5601 5600 5598
5585 5584 5585 5584 5583 5584 5583 5583 5584 5584 5584 5586 5587 5587 5587 5587 5587 5587 5588 5588 5589 5590 5591 5591 5591 5591 5591 5592 5591 5591 5590 5590 5589 5589 5588 5587 5586 5584
5569 5569 5569 5569 5569 5569 5569 5569 5570 5570 5570 5571 5572 5573 5573 5573 5573 5574 5574 5575 5576 5577 5577 5577 5578 5578 5578 5578 5578 5578 5577 5577 5576 5575 5574 5573 5572 5570
5555 5555 5555 5555 5555 5555 5555 5555 5555 5556 5556 5556 5558 5559 5560 5560 5559 5560 5561 5562 5563 5564 5564 5564 5565 5564 5565 5565 5565 5564 5564 5563 5562 5561 5560 5559 5558 5556
5540 5540 5541 5541 5541 5541 5542 5542 5542 5542 5542 5543 5544 5545 5546 5546 5547 5547 5548 5549 5550 5551 5551 5552 5552 5552 5552 5552 5552 5551 5550 5550 5549 5548 5546 5545 5543 5542
5526 5527 5527 5527 5527 5527 5528 5528 5528 5528 5529 5529 5530 5531 5533 5534 5534 5534 5535 5536 5538 5540 5538 5539 5539 5539 5540 5540 5539 5538 5537 5537 5536 5535 5533 5531 5529 5528
5512 5513 5513 5513 5513 5514 5514 5514 5515 5515 5516 5516 5517 5519 5520 5522 5522 5522 5522 5523 5525 5526 5526 5526 5527 5527 5527 5527 5527 5526 5525 5524 5523 5521 5520 5518 5516 5514
5498 5499 5499 5500 5500 5500 5500 5501 5502 5503 5503 5504 5505 5507 5507 5508 5509 5510 5510 5511 5512 5513 5513 5514 5514 5514 5514 5514 5514 5513 5512 5511 5510 5508 5506 5504 5502 5500
5485 5485 5486 5486 5487 5486 5487 5488 5489 5490 5490 5491 5493 5494 5494 5495 5496 5497 5497 5498 5499 5501 5501 5502 5502 5501 5501 5502 5501 5501 5499 5498 5497 5495 5493 5491 5489 5487
5472 5472 5472 5473 5473 5473 5473 5474 5475 5477 5478 5478 5480 5481 5482 5483 5484 5485 5486 5487 5487 5489 5490 5489 5489 5489 5489 5489 5488 5487 5486 5485 5484 5482 5480 5478 5476 5473
5459 5459 5459 5460 5460 5461 5461 5462 5463 5464 5465 5466 5467 5469 5470 5472 5473 5474 5475 5476 5476 5477 5478 5477 5477 5476 5476 5477 5476 5475 5474 5473 5471 5469 5467 5465 5463 5461
5447 5447 5447 5448 5449 5449 5449 5450 5451 5452 5453 5454 5456 5457 5459 5460 5462 5463 5464 5465 5465 5466 5466 5465 5465 5464 5464 5464 5464 5463 5461 5460 5458 5457 5455 5453 5451 5449
5435 5435 5436 5436 5437 5438 5438 5439 5440 5441 5442 5444 5445 5446 5447 5449 5450 5451 5452 5453 5454 5454 5454 5454 5454 5453 5452 5452 5451 5450 5449 5447 5446 5444 5443 5441 5439 5437
5425 5425 5426 5426 5426 5427 5428 5429 5430 5431 5432 5433 5435 5436 5437 5438 5439 5440 5442 5442 5443 5443 5443 5443 5442 5441 5440 5439 5439 5438 5437 5435 5433 5432 5430 5428 5426 5424
5415 5416 5416 5417 5417 5417 5418 5419 5420 5421 5422 5423 5424 5425 5427 5428 5429 5430 5431 5432 5432 5432 5432 5432 5431 5430 5429 5428 5427 5426 5425 5423 5421 5419 5417 5416 5414 5412
5407 5407 5408 5408 5408 5409 5409 5410 5411 5412 5413 5414 5415 5416 5417 5419 5420 5420 5421 5421 5422 5422 5421 5421 5420 5419 5418 5417 5417 5415 5413 5412 5410 5408 5406 5405 5403 5401
5399 5399 5399 5399 5399 5400 5401 5402 5402 5403 5404 5405 5406 5407 5409 5410 5410 5411 5411 5411 5411 5411 5411 5411 5410 5409 5408 5407 5406 5404 5403 5401 5400 5398 5396 5395 5393 5391
5391 5391 5391 5391 5391 5392 5392 5393 5394 5395 5396 5397 5398 5399 5400 5401 5401 5402 5402 5402 5401 5401 5401 5400 5399 5398 5398 5397 5396 5394 5392 5391 5390 5388 5387 5385 5383 5381
5383 5383 5384 5384 5384 5385 5385 5386 5387 5388 5389 5390 5391 5392 5392 5392 5393 5393 5393 5392 5392 5392 5391 5390 5390 5389 5388 5387 5387 5385 5384 5382 5381 5379 5377 5375 5373 5371
5376 5376 5377 5377 5378 5379 5379 5380 5380 5381 5382 5383 5384 5384 5384 5384 5384 5384 5384 5383 5383 5382 5382 5381 5380 5379 5379 5378 5378 5376 5375 5373 5372 5370 5368 5367 5365 5363
5370 5370 5370 5371 5371 5372 5373 5374 5374 5375 5375 5376 5377 5377 5377 5377 5377 5376 5376 5375 5374 5374 5373 5372 5371 5371 5370 5370 5369 5368 5366 5365 5363 5362 5360 5358 5356 5355